Rochester, MN

12:14 AM CDT on September 22, 2017 (GMT -0500)
Rochester International

Weather History for KRST - April, 2014

Change the Weather History Date:

Thursday, April 3, 2014

  Actual Average Record
Temperature  
Mean Temperature 34 °F 41 °F  
Max Temperature 35 °F 50 °F 74 °F (1910)
Min Temperature 32 °F 31 °F 6 °F (1954)
Degree Days  
Heating Degree Days 31 24  
Month to date heating degree days 99 74  
Since 1 July heating degree days 8079 6946  
Cooling Degree Days 0 0  
Month to date cooling degree days 0 0  
Year to date cooling degree days 0 0  
Moisture  
Dew Point 29 °F    
Average Humidity 82    
Maximum Humidity 89    
Minimum Humidity 75    
Precipitation  
Precipitation 0.37 in 0.09 in 1.21 in (1934)
Month to date precipitation 0.40 0.25  
Year to date precipitation 4.31 3.82  
Snow  
Snow T in 0.20 in 8.00 in (1945)
Month to date snowfall T 0.5  
Since 1 July snowfall 54.0 49.1  
Snow Depth 0.00 in    
Sea Level Pressure  
Sea Level Pressure 29.82 in    
Wind  
Wind Speed 15 mph (NE)    
Max Wind Speed 24 mph    
Max Gust Speed 32 mph    
Visibility 5 miles    
Events Rain , Snow    
T = Trace of Precipitation, MM = Missing Value Source: NWS Daily Summary

Daily Weather History Graph

Daily Weather History Graph

Search for Another Location

Airport or City:

Trip Planner

Search our weather history database for the weather conditions in past years. The results will help you decide how hot, cold, wet, or windy it might be!

Date:

Astronomy

Apr. 03, 2014 Rise Set
Actual Time 6:47 AM CDT 7:39 PM CDT
Civil Twilight 6:18 AM CDT 8:08 PM CDT
Nautical Twilight 5:43 AM CDT 8:43 PM CDT
Astronomical Twilight 5:07 AM CDT 9:19 PM CDT
Moon 9:10 AM CDT (4/3) No Moon Set
Length of Visible Light 13h 50m
Length of Day
12h 51m
Waxing Crescent, 17% of the Moon is Illuminated
Apr 3
Waxing Crescent
Apr 7
First Quarter
Apr 15
Full
Apr 22
Last Quarter
Apr 29
New

Hourly Weather History & Observations

Time (CDT) Temp. Windchill Dew Point Humidity Pressure Visibility Wind Dir Wind Speed Gust Speed Precip Events Conditions
12:54 AM 35.1 °F 27.4 °F 30.0 °F 82% 30.05 in 3.0 mi East 10.4 mph - 0.01 in Snow Light Snow
1:54 AM 34.0 °F 25.0 °F 30.0 °F 85% 30.04 in 8.0 mi ENE 12.7 mph - 0.05 in   Overcast
2:54 AM 33.1 °F 21.9 °F 28.9 °F 85% 29.99 in 10.0 mi ENE 18.4 mph - N/A   Overcast
3:08 AM 33.1 °F 22.2 °F 28.9 °F 85% 29.94 in 10.0 mi ENE 17.3 mph 26.5 mph N/A   Overcast
3:54 AM 33.1 °F 21.9 °F 28.0 °F 82% 29.96 in 10.0 mi ENE 18.4 mph 26.5 mph N/A   Overcast
4:54 AM 33.1 °F 21.9 °F 27.0 °F 78% 29.96 in 10.0 mi ENE 18.4 mph - N/A   Overcast
5:18 AM 32.0 °F 20.5 °F 27.0 °F 82% 29.92 in 10.0 mi ENE 18.4 mph - N/A   Overcast
5:52 AM 32.0 °F 20.5 °F 26.6 °F 80% 29.90 in 10.0 mi ENE 18.4 mph 28.8 mph N/A   Overcast
5:54 AM 32.0 °F 20.5 °F 28.0 °F 85% 29.94 in 10.0 mi ENE 18.4 mph 28.8 mph N/A   Overcast
6:54 AM 33.1 °F 21.9 °F 27.0 °F 78% 29.94 in 10.0 mi East 18.4 mph 28.8 mph N/A   Overcast
7:54 AM 33.1 °F 20.9 °F 27.0 °F 78% 29.91 in 10.0 mi ENE 21.9 mph 27.6 mph N/A   Overcast
8:54 AM 33.1 °F 21.2 °F 26.1 °F 75% 29.89 in 10.0 mi East 20.7 mph - N/A   Overcast
9:23 AM 33.1 °F 22.2 °F 26.1 °F 75% 29.86 in 10.0 mi East 17.3 mph 24.2 mph N/A   Overcast
9:54 AM 33.1 °F 22.2 °F 26.1 °F 75% 29.88 in 10.0 mi ENE 17.3 mph - N/A   Overcast
10:54 AM 33.1 °F 23.0 °F 26.1 °F 75% 29.90 in 10.0 mi ENE 15.0 mph - N/A   Overcast
11:54 AM 32.0 °F 22.5 °F 28.0 °F 85% 29.89 in 3.0 mi ENE 12.7 mph - N/A   Overcast
12:24 PM 33.1 °F 22.6 °F 28.0 °F 82% 29.84 in 3.0 mi ENE 16.1 mph - N/A   Haze
12:54 PM 33.1 °F 23.4 °F 28.9 °F 85% 29.87 in 5.0 mi ENE 13.8 mph - N/A   Overcast
1:27 PM 33.1 °F 23.9 °F 28.9 °F 85% 29.82 in 2.5 mi East 12.7 mph - N/A   Overcast
1:39 PM 33.1 °F 23.4 °F 30.0 °F 89% 29.82 in 1.5 mi East 13.8 mph - N/A   Overcast
1:54 PM 33.1 °F 24.9 °F 30.0 °F 89% 29.86 in 2.5 mi ENE 10.4 mph - N/A   Overcast
2:04 PM 33.1 °F 24.4 °F 30.0 °F 89% 29.82 in 3.0 mi ENE 11.5 mph - N/A   Overcast
2:36 PM 33.1 °F 23.9 °F 30.0 °F 89% 29.80 in 2.5 mi NE 12.7 mph - N/A   Overcast
2:54 PM 33.1 °F 23.9 °F 30.0 °F 89% 29.83 in 2.5 mi NE 12.7 mph - N/A   Overcast
3:20 PM 34.0 °F 24.6 °F 30.0 °F 85% 29.77 in 3.0 mi ENE 13.8 mph - N/A   Overcast
3:41 PM 34.0 °F 24.6 °F 30.0 °F 85% 29.77 in 2.5 mi ENE 13.8 mph - N/A   Overcast
3:54 PM 34.0 °F 25.5 °F 30.0 °F 85% 29.81 in 2.0 mi ENE 11.5 mph - N/A   Overcast
4:07 PM 33.1 °F 23.4 °F 30.0 °F 89% 29.77 in 1.8 mi NE 13.8 mph - N/A   Overcast
4:29 PM 34.0 °F 25.0 °F 30.9 °F 89% 29.76 in 1.2 mi ENE 12.7 mph - N/A   Overcast
4:51 PM 33.8 °F 24.3 °F 30.2 °F 87% 29.76 in 1.5 mi ENE 13.8 mph - N/A   Overcast
4:54 PM 34.0 °F 25.5 °F 30.9 °F 89% 29.81 in 1.2 mi ENE 11.5 mph - N/A   Overcast
5:03 PM 33.1 °F 23.4 °F 30.9 °F 92% 29.76 in 1.2 mi NE 13.8 mph - N/A   Overcast
5:26 PM 33.1 °F 24.9 °F 30.0 °F 89% 29.76 in 1.5 mi NNE 10.4 mph - N/A   Overcast
5:28 PM 33.1 °F 24.4 °F 30.0 °F 89% 29.76 in 3.0 mi NNE 11.5 mph - N/A   Overcast
5:48 PM 33.8 °F 24.3 °F 30.2 °F 87% 29.75 in 1.8 mi NE 13.8 mph - 0.00 in Rain Light Rain
5:54 PM 33.1 °F 23.4 °F 30.0 °F 89% 29.80 in 1.2 mi NE 13.8 mph - 0.01 in Rain Light Rain
6:11 PM 32.0 °F 21.6 °F 30.0 °F 92% 29.75 in 2.0 mi NNE 15.0 mph - 0.02 in Rain Light Rain
6:28 PM 32.0 °F 21.6 °F 28.9 °F 88% 29.75 in 2.5 mi NNE 15.0 mph - 0.03 in Rain Light Freezing Rain
6:41 PM 32.0 °F 22.1 °F 28.9 °F 88% 29.73 in 3.0 mi NE 13.8 mph - 0.04 in Rain Light Freezing Rain
6:54 PM 32.0 °F 22.1 °F 28.9 °F 88% 29.78 in 5.0 mi NE 13.8 mph - 0.04 in Rain Light Freezing Rain
7:01 PM 32.0 °F 21.2 °F 28.9 °F 88% 29.74 in 5.0 mi NE 16.1 mph - 0.00 in Rain Light Freezing Rain
7:54 PM 32.0 °F 21.2 °F 28.0 °F 85% 29.77 in 6.0 mi NNE 16.1 mph - 0.02 in Rain Light Freezing Rain
8:24 PM 32.0 °F 21.6 °F 28.9 °F 88% 29.73 in 7.0 mi NNE 15.0 mph - 0.01 in   Overcast
8:38 PM 32.0 °F 21.6 °F 28.9 °F 88% 29.73 in 3.0 mi NNE 15.0 mph - 0.02 in Rain Light Freezing Rain
8:45 PM 32.0 °F 21.2 °F 28.9 °F 88% 29.72 in 2.0 mi NE 16.1 mph - 0.05 in Rain Light Freezing Rain
8:54 PM 32.0 °F 20.8 °F 28.9 °F 88% 29.75 in 2.0 mi NNE 17.3 mph - 0.07 in Rain Light Freezing Rain
8:57 PM 32.0 °F 19.5 °F 28.9 °F 88% 29.69 in 3.0 mi NNE 21.9 mph - 0.00 in Rain Light Freezing Rain
9:30 PM 32.0 °F 20.1 °F 28.9 °F 88% 29.68 in 5.0 mi NNE 19.6 mph - 0.03 in   Overcast
10:54 PM 32.0 °F 22.1 °F 28.9 °F 88% 29.75 in 4.0 mi NNE 13.8 mph - 0.09 in Snow Light Snow
11:07 PM 32.0 °F 21.6 °F 28.9 °F 88% 29.69 in 2.5 mi NNE 15.0 mph - 0.03 in Rain Light Freezing Rain
11:17 PM 32.0 °F 22.5 °F 28.9 °F 88% 29.69 in 3.0 mi NNE 12.7 mph - 0.05 in Rain Light Freezing Rain
11:30 PM 32.0 °F 22.1 °F 28.9 °F 88% 29.68 in 7.0 mi NE 13.8 mph - 0.06 in Rain Light Freezing Rain
11:50 PM 32.0 °F 22.1 °F 28.4 °F 87% 29.68 in 7.0 mi NE 13.8 mph - 0.06 in   Overcast
11:54 PM 32.0 °F 23.6 °F 28.9 °F 88% 29.73 in 7.0 mi NE 10.4 mph - 0.06 in   Overcast